When you browse on this site, cookies collect data to enhance your experience and personalize the content and advertising you see.
Visit our Privacy Policy to learn more. By continuing to use the site, you agree to this use of cookies and data.
  • In Hungary
  • List of Countries
  • For 7 days
  • Water Temperature
  • Weather Map
  • News
  • Weather Widgets
  • user-avatar
    Login

    Hourly Weather Kulyabovka

    Today, 14 October, Monday

    Time Temperature Precipitation Wind Pressure Humidity
    00:00 +13°C° 0.2 mm 3 mps 752 mmHg 88%
    01:00 +13°C° 0.1 mm 3 mps 753 mmHg 89%
    02:00 +13°C° 0.1 mm 3 mps 753 mmHg 90%
    03:00 +12°C° 0 mm 3 mps 753 mmHg 94%
    04:00 +12°C° 0 mm 3 mps 753 mmHg 93%
    05:00 +12°C° 0 mm 3 mps 754 mmHg 92%
    06:00 +12°C° 0 mm 3 mps 754 mmHg 91%
    07:00 +12°C° 0 mm 3 mps 754 mmHg 88%
    08:00 +13°C° 0 mm 3 mps 755 mmHg 84%
    09:00 +13°C° 0 mm 4 mps 755 mmHg 79%
    10:00 +14°C° 0 mm 4 mps 755 mmHg 75%
    11:00 +15°C° 0 mm 4 mps 755 mmHg 71%
    12:00 +17°C° 0 mm 4 mps 755 mmHg 66%
    13:00 +17°C° 0 mm 4 mps 755 mmHg 68%
    14:00 +17°C° 0 mm 4 mps 755 mmHg 69%
    15:00 +17°C° 0 mm 4 mps 755 mmHg 70%
    16:00 +17°C° 0 mm 4 mps 755 mmHg 75%
    17:00 +16°C° 0 mm 3 mps 755 mmHg 80%
    18:00 +14°C° 0 mm 3 mps 754 mmHg 86%
    19:00 +14°C° 0 mm 3 mps 754 mmHg 86%
    20:00 +14°C° 0 mm 4 mps 754 mmHg 86%
    21:00 +14°C° 0 mm 4 mps 753 mmHg 86%
    22:00 +14°C° 0 mm 5 mps 753 mmHg 82%
    23:00 +14°C° 0 mm 5 mps 753 mmHg 78%

    Tomorrow, 15 October, Tuesday

    Time Temperature Precipitation Wind Pressure Humidity
    00:00 +14°C° 0 mm 5 mps 752 mmHg 74%
    01:00 +14°C° 0 mm 6 mps 752 mmHg 74%
    02:00 +14°C° 0 mm 6 mps 752 mmHg 73%
    03:00 +13°C° 0 mm 6 mps 752 mmHg 73%
    04:00 +13°C° 0 mm 6 mps 751 mmHg 74%
    05:00 +13°C° 0 mm 6 mps 751 mmHg 76%
    06:00 +11°C° 0 mm 6 mps 751 mmHg 77%
    07:00 +13°C° 0 mm 6 mps 751 mmHg 75%
    08:00 +14°C° 0 mm 6 mps 751 mmHg 72%
    09:00 +14°C° 0 mm 6 mps 751 mmHg 70%
    10:00 +16°C° 0 mm 6 mps 752 mmHg 67%
    11:00 +17°C° 0 mm 6 mps 752 mmHg 64%
    12:00 +19°C° 0 mm 6 mps 752 mmHg 61%
    13:00 +19°C° 0 mm 6 mps 752 mmHg 62%
    14:00 +19°C° 0 mm 6 mps 752 mmHg 62%
    15:00 +19°C° 0 mm 6 mps 752 mmHg 62%
    16:00 +16°C° 0 mm 5 mps 753 mmHg 65%
    17:00 +15°C° 0 mm 4 mps 753 mmHg 68%
    18:00 +13°C° 0 mm 3 mps 753 mmHg 71%
    19:00 +13°C° 0 mm 3 mps 754 mmHg 72%
    20:00 +12°C° 0 mm 3 mps 754 mmHg 74%
    21:00 +12°C° 0 mm 3 mps 755 mmHg 75%
    22:00 +11°C° 0 mm 3 mps 755 mmHg 78%
    23:00 +10°C° 0 mm 3 mps 756 mmHg 81%

    Day after tomorrow, 16 October, Wednesday

    Time Temperature Precipitation Wind Pressure Humidity
    00:00 +9°C° 0 mm 3 mps 756 mmHg 85%
    01:00 +9°C° 0 mm 3 mps 757 mmHg 87%
    02:00 +8°C° 0 mm 3 mps 757 mmHg 88%
    03:00 +7°C° 0 mm 3 mps 758 mmHg 90%
    04:00 +7°C° 0 mm 3 mps 758 mmHg 91%
    05:00 +5°C° 0 mm 3 mps 758 mmHg 91%
    06:00 +5°C° 0 mm 3 mps 759 mmHg 91%
    07:00 +5°C° 0 mm 3 mps 759 mmHg 84%
    08:00 +7°C° 0 mm 3 mps 759 mmHg 77%
    09:00 +7°C° 0 mm 3 mps 760 mmHg 70%
    10:00 +8°C° 0 mm 3 mps 760 mmHg 63%
    11:00 +9°C° 0 mm 3 mps 760 mmHg 57%
    12:00 +10°C° 0 mm 3 mps 760 mmHg 50%
    13:00 +12°C° 0 mm 2 mps 760 mmHg 47%
    14:00 +12°C° 0 mm 2 mps 760 mmHg 45%
    15:00 +12°C° 0 mm 2 mps 760 mmHg 43%
    16:00 +10°C° 0 mm 2 mps 760 mmHg 47%
    17:00 +9°C° 0 mm 2 mps 760 mmHg 52%
    18:00 +8°C° 0 mm 2 mps 760 mmHg 56%
    19:00 +7°C° 0 mm 2 mps 760 mmHg 58%
    20:00 +7°C° 0 mm 3 mps 760 mmHg 60%
    21:00 +5°C° 0 mm 3 mps 760 mmHg 62%
    22:00 +5°C° 0 mm 3 mps 760 mmHg 62%
    23:00 +5°C° 0 mm 3 mps 760 mmHg 63%

    17 October, Thursday

    Time Temperature Precipitation Wind Pressure Humidity
    00:00 +5°C° 0 mm 3 mps 760 mmHg 63%
    01:00 +4°C° 0 mm 3 mps 759 mmHg 65%
    02:00 +4°C° 0 mm 3 mps 759 mmHg 68%
    03:00 +4°C° 0 mm 3 mps 759 mmHg 70%
    04:00 +4°C° 0 mm 3 mps 759 mmHg 71%
    05:00 +4°C° 0 mm 3 mps 759 mmHg 72%
    06:00 +4°C° 0 mm 3 mps 759 mmHg 73%
    07:00 +5°C° 0 mm 4 mps 759 mmHg 69%
    08:00 +6°C° 0 mm 4 mps 758 mmHg 64%
    09:00 +7°C° 0 mm 5 mps 758 mmHg 60%
    10:00 +9°C° 0 mm 5 mps 758 mmHg 57%
    11:00 +10°C° 0 mm 5 mps 757 mmHg 55%
    12:00 +13°C° 0 mm 5 mps 757 mmHg 52%
    13:00 +13°C° 0 mm 5 mps 757 mmHg 53%
    14:00 +14°C° 0 mm 5 mps 756 mmHg 54%
    15:00 +15°C° 0 mm 5 mps 756 mmHg 56%
    16:00 +14°C° 0 mm 4 mps 755 mmHg 61%
    17:00 +12°C° 0 mm 4 mps 755 mmHg 67%
    18:00 +11°C° 0 mm 3 mps 755 mmHg 73%
    19:00 +11°C° 0 mm 3 mps 755 mmHg 75%
    20:00 +11°C° 0 mm 3 mps 754 mmHg 77%
    21:00 +10°C° 0 mm 3 mps 754 mmHg 80%
    22:00 +10°C° 0 mm 3 mps 754 mmHg 82%
    23:00 +10°C° 0 mm 3 mps 754 mmHg 84%

    18 October, Friday

    Time Temperature Precipitation Wind Pressure Humidity
    00:00 +10°C° 0 mm 3 mps 754 mmHg 85%
    01:00 +9°C° 0 mm 3 mps 753 mmHg 86%
    02:00 +9°C° 0 mm 3 mps 753 mmHg 87%
    03:00 +9°C° 0 mm 3 mps 753 mmHg 88%
    04:00 +9°C° 0 mm 3 mps 753 mmHg 88%
    05:00 +9°C° 0 mm 3 mps 752 mmHg 89%
    06:00 +9°C° 0 mm 2 mps 752 mmHg 89%
    07:00 +10°C° 0 mm 2 mps 752 mmHg 85%
    08:00 +11°C° 0 mm 3 mps 752 mmHg 81%
    09:00 +12°C° 0 mm 3 mps 751 mmHg 77%
    10:00 +13°C° 0 mm 3 mps 752 mmHg 71%
    11:00 +16°C° 0 mm 3 mps 752 mmHg 65%
    12:00 +18°C° 0 mm 3 mps 752 mmHg 59%
    13:00 +17°C° 0.1 mm 3 mps 752 mmHg 61%
    14:00 +17°C° 0.1 mm 3 mps 752 mmHg 63%
    15:00 +17°C° 0.1 mm 3 mps 752 mmHg 65%
    16:00 +14°C° 0.1 mm 3 mps 752 mmHg 73%
    17:00 +13°C° 0.1 mm 3 mps 752 mmHg 81%
    18:00 +12°C° 0.1 mm 3 mps 752 mmHg 89%
    19:00 +11°C° 0 mm 4 mps 753 mmHg 89%
    20:00 +10°C° 0 mm 4 mps 753 mmHg 89%
    21:00 +9°C° 0 mm 5 mps 754 mmHg 89%
    22:00 +8°C° 0 mm 5 mps 754 mmHg 87%
    23:00 +8°C° 0 mm 5 mps 755 mmHg 85%

    19 October, Saturday

    Time Temperature Precipitation Wind Pressure Humidity
    00:00 +8°C° 0 mm 5 mps 755 mmHg 83%
    01:00 +8°C° 0 mm 4 mps 756 mmHg 81%
    02:00 +7°C° 0 mm 4 mps 756 mmHg 80%
    03:00 +7°C° 0 mm 4 mps 756 mmHg 79%
    04:00 +7°C° 0 mm 4 mps 757 mmHg 78%
    05:00 +6°C° 0 mm 4 mps 757 mmHg 78%
    06:00 +6°C° 0 mm 4 mps 758 mmHg 77%
    07:00 +6°C° 0 mm 4 mps 758 mmHg 76%
    08:00 +6°C° 0 mm 4 mps 758 mmHg 75%
    09:00 +6°C° 0 mm 4 mps 759 mmHg 73%
    10:00 +6°C° 0 mm 4 mps 759 mmHg 72%
    11:00 +6°C° 0 mm 4 mps 759 mmHg 71%
    12:00 +6°C° 0 mm 4 mps 759 mmHg 70%
    13:00 +6°C° 0 mm 4 mps 759 mmHg 69%
    14:00 +7°C° 0 mm 4 mps 759 mmHg 68%
    15:00 +7°C° 0 mm 4 mps 759 mmHg 68%
    16:00 +7°C° 0 mm 3 mps 759 mmHg 67%
    17:00 +7°C° 0 mm 3 mps 759 mmHg 67%
    18:00 +7°C° 0 mm 3 mps 760 mmHg 67%
    19:00 +7°C° 0 mm 3 mps 760 mmHg 66%
    20:00 +7°C° 0 mm 3 mps 760 mmHg 65%
    21:00 +7°C° 0 mm 3 mps 760 mmHg 64%
    22:00 +7°C° 0 mm 3 mps 760 mmHg 63%
    23:00 +7°C° 0 mm 3 mps 760 mmHg 62%
    Show more